[[{"header":{"parameterUnit":"m.s-1","parameterCategory":1,"la1":30.2991,"la2":30.254,"lo1":-89.0895,"lo2":-89.0444,"dy":0.0017,"dx":0.0017,"nx":28,"ny":28,"refTime":"2023-07-29T21:00:00:Z","depth":0,"parameterNumber":2,"parameterNumberName":"U-component_of_WINDS"},"data":[0,0,0,0,0,0,0,0,0,0,0,0,0,0,0,0,0,0,0,0,0,0,0,0,0,0,0,0,0,0,0,0,0,0,0,0,0,0,0,0,0,0,0,0,0,0,0,0,0,0,0,0,0,0,0,0,0,0,3.9909,3.991,0,3.997,3.9971,3.9971,3.9811,3.9806,3.9801,3.9797,3.9865,3.9871,3.9877,0,0,0,0,0,0,0,0,0,0,0,0,0,3.966,3.9666,3.9909,3.991,3.9911,3.997,3.9971,3.9972,3.9812,3.9806,3.98,3.9794,3.9863,3.987,3.9878,0,0,0,0,0,0,0,0,0,0,0,0,0,3.975,3.9667,3.9909,3.9838,3.9832,3.997,3.9971,3.9972,3.9814,3.9806,3.9799,3.9792,3.986,3.987,3.9879,4.009,0,0,3.9909,3.9913,0,0,0,0,0,0,0,0,3.9745,3.9759,3.9848,3.9843,3.9837,3.9875,3.9908,4.0012,3.9816,3.9821,3.9797,3.9788,3.9875,3.9883,3.9911,4.0093,4.0096,3.991,3.9916,3.992,3.9923,0,0,0,0,0,0,0,3.9739,3.9756,3.9933,3.9849,3.9843,3.9805,3.9809,3.9927,3.989,3.982,3.9808,3.9817,3.987,3.9902,3.9911,4.0097,3.9909,3.9918,3.9924,3.9928,4.0456,4.0463,0,0,0,0,0,0,3.9741,3.9751,3.9931,3.9935,3.9771,3.9816,3.9821,3.9871,3.9888,3.9883,3.9824,3.981,3.9889,3.99,3.9913,4.0161,3.992,3.9929,3.9934,4.0448,4.0458,4.0466,0,0,0,0,0,0,3.9736,3.9759,3.9929,3.984,3.9859,3.9828,3.9886,3.9876,3.9907,3.9891,3.9884,3.9863,3.9884,3.9899,4.0047,4.0162,3.9933,3.9942,4.0438,4.0451,4.0462,4.066,0,0,0,0,0,0,3.973,3.9758,3.9836,3.9843,3.9864,4.0061,3.9893,3.9883,3.9924,3.9906,3.9925,3.9921,3.9879,4.0033,4.0057,4.0171,3.995,4.0428,4.0444,4.0458,4.0643,4.0677,4.0707,0,0,0,0,0,3.9721,3.989,3.9841,3.9864,3.9961,4.0067,4.008,4.0026,3.9933,4.0013,4.0002,3.9921,4.0145,4.005,4.0075,4.0194,4.042,4.0439,4.0457,4.0629,4.0671,4.0706,0,0,0,0,0,0,3.99,3.989,3.9835,4.0011,4.0041,4.004,4.0139,4.0072,4.013,4.0112,4.0044,4.005,4.021,4.0216,4.011,4.0399,4.0267,4.0291,4.0389,4.0429,4.046,4.0456,3.9958,0,0,0,0,0,3.9959,4.0044,4.0032,4.0188,4.0206,4.017,4.0214,4.017,4.02,4.0212,4.0212,4.0245,4.0323,4.0376,4.0447,4.0643,4.0645,4.0737,4.0769,4.0795,4.0817,4.0923,4.0964,4.0527,4.0527,4.0526,0,0,4.0083,4.0089,4.0147,4.0224,4.0242,4.0334,4.0182,4.0285,4.0353,4.0228,4.0367,4.0369,4.0401,4.0574,4.065,4.0584,4.0939,4.0819,4.084,4.0848,4.0946,4.0987,4.1024,4.0539,4.0537,4.0535,0,0,4.0357,4.0369,4.0501,4.0522,4.055,4.0525,4.0558,4.0567,4.0563,4.0701,4.0609,4.069,4.0825,4.0852,4.0884,4.1169,4.1096,4.1194,4.1361,4.1465,4.1499,4.1529,4.1632,4.167,4.1216,4.1216,4.1217,0,4.0508,4.0641,4.0577,4.0687,4.0725,4.0614,4.0748,4.0772,4.0824,4.0854,4.0778,4.0946,4.096,4.1138,4.1208,4.1237,4.1273,4.1192,4.1499,4.1529,4.1556,4.1653,4.1692,4.1228,4.1227,4.1225,4.1224,0,4.0826,4.092,4.1023,4.1074,4.1123,4.1245,4.1202,4.126,4.1212,4.1196,4.1339,4.1351,4.1423,4.1462,4.1417,4.1635,4.1593,4.151,4.1376,4.161,4.1701,4.1738,4.1245,4.1241,4.1237,4.1234,0,0,4.1214,4.1228,4.1267,4.129,4.1313,4.1385,4.1503,4.1571,4.1623,4.1663,4.1761,4.1878,4.1801,4.1837,4.1794,4.1884,4.2111,4.179,4.1789,4.185,4.2354,4.2417,4.2462,4.2062,4.2069,4.2075,4.2351,0,4.1485,4.1684,4.1631,4.1831,4.1917,4.1814,4.1916,4.1943,4.1932,4.2005,4.1992,4.2077,4.1968,4.1989,4.2074,4.2065,4.2211,4.2044,4.2155,4.216,4.2151,4.2508,4.2576,4.2837,4.2386,4.2392,4.2397,0,4.1827,4.1878,4.2087,4.2097,4.2131,4.2224,4.2283,4.2354,4.2383,4.2368,4.2409,4.2348,4.2465,4.233,4.2493,4.2381,4.2422,4.2425,4.2434,4.2443,4.2293,4.2529,4.2918,4.2958,4.2451,4.2447,4.2443,0,4.2091,4.2212,4.2352,4.2375,4.239,4.2458,4.2467,4.2489,4.2534,4.2586,4.2615,4.2681,4.2718,4.2771,4.273,4.2635,4.29,4.2761,4.2893,4.2895,4.2954,4.2952,4.3358,4.298,4.298,4.2979,4.2978,0,4.24,4.2532,4.2471,4.2558,4.2703,4.2641,4.2788,4.2786,4.2806,4.2891,4.2806,4.2889,4.2829,4.2908,4.2876,4.3017,4.3034,4.3026,4.3017,4.3035,4.3036,4.3062,4.3044,4.2989,4.2987,4.2985,4.2983,0,4.272,4.2684,4.283,4.2832,4.2836,4.2943,4.2945,4.3027,4.3008,4.3118,4.3141,4.3113,4.3201,4.3165,4.3258,4.3237,4.3417,4.3383,4.3407,4.3399,4.3533,4.3522,4.3971,4.4028,4.3613,4.3617,4.362,0,4.2919,4.3018,4.303,4.3081,4.3096,4.3179,4.3224,4.3167,4.3218,4.3259,4.3336,4.3416,4.3477,4.3623,4.3612,4.3683,4.3651,4.3804,4.3662,4.3677,4.3655,4.365,4.3661,4.3833,4.3838,4.3842,4.3845,0,4.3279,4.3256,4.3323,4.3385,4.3441,4.3488,4.3527,4.3574,4.3519,4.3581,4.3669,4.3716,4.3811,4.3892,4.3955,4.3967,4.3899,4.389,4.3924,4.3944,4.3955,4.3952,4.3486,4.388,4.3876,4.3874,4.3872,4.387,4.3545,4.3628,4.365,4.3728,4.3751,4.379,4.3867,4.3858,4.3929,4.4001,4.3963,4.4066,4.4094,4.4171,4.4193,4.4274,4.4214,4.4264,4.4277,4.429,4.4308,4.3941,4.4285,4.4284,4.4283,4.4282,4.4281,0,4.3901,4.3909,4.3982,4.4039,4.4101,4.4028,4.4068,4.4126,4.4217,4.4247,4.4308,4.441,4.4489,4.4484,4.4557,4.4623,4.4594,4.4644,4.464,4.4644,4.4357,4.432,4.4667,4.4667,4.4667,4.4667,4.4667,4.4667,4.4093,4.4231,4.4211,4.436,4.4368,4.4466,4.4496,4.4532,4.4556,4.4673,4.4737,4.4732,4.475,4.4823,4.4893,4.4889,4.4921,4.4984,4.497,4.4702,4.4664,4.4627,4.4593,4.4991,4.4991,4.5249,4.5252,4.5254]},{"header":{"parameterUnit":"m.s-1","parameterCategory":1,"la1":30.2991,"la2":30.254,"lo1":-89.0895,"lo2":-89.0444,"dy":0.0017,"dx":0.0017,"nx":28,"ny":28,"refTime":"2023-07-29T21:00:00:Z","depth":0,"parameterNumber":3,"parameterNumberName":"V-component_of_WINDS"},"data":[0,0,0,0,0,0,0,0,0,0,0,0,0,0,0,0,0,0,0,0,0,0,0,0,0,0,0,0,0,0,0,0,0,0,0,0,0,0,0,0,0,0,0,0,0,0,0,0,0,0,0,0,0,0,0,0,0,0,-0.4526,-0.4526,0,-0.4524,-0.4524,-0.4523,-0.4539,-0.4539,-0.454,-0.454,-0.4536,-0.4535,-0.4535,0,0,0,0,0,0,0,0,0,0,0,0,0,-0.4541,-0.454,-0.4526,-0.4526,-0.4525,-0.4524,-0.4524,-0.4523,-0.4539,-0.4539,-0.454,-0.454,-0.4536,-0.4535,-0.4535,0,0,0,0,0,0,0,0,0,0,0,0,0,-0.4536,-0.454,-0.4526,-0.4533,-0.4534,-0.4524,-0.4524,-0.4523,-0.4539,-0.4539,-0.454,-0.454,-0.4536,-0.4535,-0.4535,-0.4517,0,0,-0.4532,-0.4532,0,0,0,0,0,0,0,0,-0.4536,-0.4535,-0.4532,-0.4532,-0.4533,-0.4532,-0.4527,-0.4521,-0.4538,-0.4537,-0.454,-0.4541,-0.4534,-0.4533,-0.4532,-0.4517,-0.4517,-0.4532,-0.4532,-0.4532,-0.4531,0,0,0,0,0,0,0,-0.4536,-0.4535,-0.4525,-0.4532,-0.4532,-0.4536,-0.4536,-0.4526,-0.4532,-0.4537,-0.4538,-0.4538,-0.4534,-0.4532,-0.4532,-0.4517,-0.4532,-0.4532,-0.4531,-0.4531,-0.4487,-0.4486,0,0,0,0,0,0,-0.4536,-0.4536,-0.4525,-0.4525,-0.4536,-0.4535,-0.4535,-0.4532,-0.4532,-0.4532,-0.4537,-0.4538,-0.4533,-0.4532,-0.4531,-0.4511,-0.4532,-0.4531,-0.453,-0.4488,-0.4487,-0.4486,0,0,0,0,0,0,-0.4536,-0.4535,-0.4525,-0.453,-0.4529,-0.4534,-0.453,-0.4531,-0.4529,-0.4532,-0.4533,-0.4534,-0.4534,-0.4533,-0.4521,-0.4511,-0.453,-0.453,-0.4488,-0.4487,-0.4486,-0.4469,0,0,0,0,0,0,-0.4537,-0.4535,-0.4529,-0.453,-0.4529,-0.4514,-0.453,-0.4531,-0.4528,-0.453,-0.4529,-0.453,-0.4534,-0.4522,-0.452,-0.451,-0.4529,-0.4489,-0.4488,-0.4487,-0.447,-0.4467,-0.4464,0,0,0,0,0,-0.4537,-0.4523,-0.4528,-0.4527,-0.4521,-0.4514,-0.4513,-0.4519,-0.4527,-0.4521,-0.4522,-0.453,-0.4512,-0.452,-0.4518,-0.4508,-0.449,-0.4488,-0.4487,-0.4471,-0.4468,-0.4464,0,0,0,0,0,0,-0.452,-0.4524,-0.4529,-0.4516,-0.4514,-0.4517,-0.4508,-0.4515,-0.4511,-0.4512,-0.4519,-0.4519,-0.4506,-0.4506,-0.4515,-0.4491,-0.4502,-0.45,-0.4491,-0.4488,-0.4485,-0.4485,-0.4529,0,0,0,0,0,-0.4515,-0.4509,-0.4512,-0.45,-0.4499,-0.4504,-0.4501,-0.4505,-0.4504,-0.4504,-0.4504,-0.4502,-0.4496,-0.4492,-0.4487,-0.447,-0.447,-0.4462,-0.4459,-0.4457,-0.4455,-0.4446,-0.4442,-0.4481,-0.4481,-0.4481,0,0,-0.4503,-0.4505,-0.4501,-0.4496,-0.4496,-0.4489,-0.4503,-0.4496,-0.449,-0.4502,-0.4491,-0.4492,-0.449,-0.4475,-0.4469,-0.4475,-0.4444,-0.4455,-0.4453,-0.4452,-0.4444,-0.444,-0.4437,-0.448,-0.448,-0.448,0,0,-0.448,-0.448,-0.447,-0.4469,-0.4469,-0.4472,-0.447,-0.4471,-0.4472,-0.4461,-0.447,-0.4463,-0.4453,-0.4451,-0.4449,-0.4424,-0.4431,-0.4422,-0.4407,-0.4398,-0.4395,-0.4393,-0.4383,-0.438,-0.442,-0.442,-0.442,0,-0.4466,-0.4456,-0.4464,-0.4455,-0.4453,-0.4464,-0.4453,-0.4452,-0.445,-0.4448,-0.4454,-0.4441,-0.4441,-0.4426,-0.442,-0.4418,-0.4415,-0.4422,-0.4395,-0.4393,-0.439,-0.4382,-0.4378,-0.4419,-0.4419,-0.4419,-0.4419,0,-0.4439,-0.4432,-0.4424,-0.4422,-0.4419,-0.4409,-0.4415,-0.441,-0.4415,-0.4418,-0.4406,-0.4406,-0.44,-0.4397,-0.4402,-0.4383,-0.4387,-0.4394,-0.4406,-0.4385,-0.4377,-0.4374,-0.4418,-0.4418,-0.4418,-0.4419,0,0,-0.4404,-0.4406,-0.4403,-0.4402,-0.4402,-0.4397,-0.4388,-0.4383,-0.4379,-0.4377,-0.4369,-0.436,-0.4367,-0.4364,-0.4369,-0.4361,-0.4341,-0.4369,-0.437,-0.4364,-0.432,-0.4314,-0.431,-0.4346,-0.4345,-0.4345,-0.432,0,-0.438,-0.4366,-0.4372,-0.4356,-0.435,-0.436,-0.4352,-0.4351,-0.4353,-0.4347,-0.4349,-0.4342,-0.4352,-0.4351,-0.4344,-0.4345,-0.4332,-0.4347,-0.4338,-0.4337,-0.4337,-0.4306,-0.43,-0.4277,-0.4317,-0.4316,-0.4316,0,-0.4351,-0.4348,-0.4332,-0.4333,-0.4331,-0.4323,-0.432,-0.4315,-0.4313,-0.4315,-0.4312,-0.4318,-0.4309,-0.4321,-0.4307,-0.4317,-0.4313,-0.4314,-0.4313,-0.4312,-0.4325,-0.4304,-0.4269,-0.4266,-0.4311,-0.4312,-0.4312,0,-0.4327,-0.4319,-0.4308,-0.4307,-0.4308,-0.4303,-0.4303,-0.4302,-0.4299,-0.4296,-0.4294,-0.4289,-0.4286,-0.4282,-0.4286,-0.4294,-0.4272,-0.4284,-0.4272,-0.4272,-0.4267,-0.4267,-0.4231,-0.4265,-0.4265,-0.4265,-0.4265,0,-0.43,-0.4289,-0.4297,-0.429,-0.4279,-0.4286,-0.4274,-0.4275,-0.4275,-0.4268,-0.4276,-0.427,-0.4276,-0.427,-0.4273,-0.4261,-0.426,-0.426,-0.4261,-0.426,-0.4259,-0.4257,-0.4259,-0.4264,-0.4264,-0.4265,-0.4265,0,-0.427,-0.4276,-0.4264,-0.4267,-0.4267,-0.4258,-0.426,-0.4253,-0.4256,-0.4247,-0.4246,-0.4249,-0.4242,-0.4246,-0.4239,-0.4241,-0.4226,-0.4229,-0.4226,-0.4227,-0.4215,-0.4216,-0.4176,-0.4171,-0.4208,-0.4208,-0.4208,0,-0.4253,-0.4245,-0.4247,-0.4243,-0.4243,-0.4237,-0.4234,-0.424,-0.4237,-0.4235,-0.4228,-0.4222,-0.4217,-0.4206,-0.4207,-0.4202,-0.4205,-0.4191,-0.4204,-0.4202,-0.4204,-0.4204,-0.4203,-0.4188,-0.4188,-0.4187,-0.4187,0,-0.4221,-0.4224,-0.4219,-0.4215,-0.4212,-0.4209,-0.4207,-0.4203,-0.421,-0.4205,-0.4198,-0.4195,-0.4188,-0.4181,-0.4176,-0.4176,-0.4182,-0.4183,-0.418,-0.4178,-0.4177,-0.4177,-0.4219,-0.4184,-0.4184,-0.4185,-0.4185,-0.4185,-0.4196,-0.419,-0.419,-0.4185,-0.4184,-0.4182,-0.4176,-0.4178,-0.4173,-0.4168,-0.4172,-0.4164,-0.4162,-0.4157,-0.4155,-0.4148,-0.4154,-0.4149,-0.4148,-0.4147,-0.4145,-0.4178,-0.4148,-0.4148,-0.4148,-0.4148,-0.4148,0,-0.4164,-0.4165,-0.416,-0.4157,-0.4153,-0.416,-0.4158,-0.4154,-0.4147,-0.4145,-0.4141,-0.4133,-0.4127,-0.4128,-0.4122,-0.4117,-0.412,-0.4115,-0.4115,-0.4115,-0.4141,-0.4144,-0.4113,-0.4113,-0.4113,-0.4113,-0.4113,-0.4113,-0.4147,-0.4137,-0.414,-0.4128,-0.4129,-0.4122,-0.412,-0.4118,-0.4117,-0.4108,-0.4103,-0.4104,-0.4103,-0.4098,-0.4092,-0.4093,-0.409,-0.4084,-0.4086,-0.411,-0.4113,-0.4116,-0.4119,-0.4084,-0.4083,-0.406,-0.406,-0.406]}]]